Station Historical Data
Daily Summary for January 14, 2012 Units:  English    Metric   Both
« Previous Day
Next Day »
Daily Weekly Monthly Yearly Custom
  High: Low: Average:
Temperature: 54.9 °F 24.1 °F 38 °F
Dew Point: 30.0 °F 18.2 °F 23.9 °F
Humidity: 82% 29% 59%
Wind Speed: 21.0mph 0.0mph 5.9mph
Wind Gust: 28.0mph - -
Wind- - SW
Pressure: 30.28 in 30.05 in -
Precipitation: 0.00 in    
Historical Graphs
 
 
Tabular Data for January 14, 2012
Time Temperature Dew Point Pressure Wind Wind Speed Wind Gust Humidity Rainfall Rate (Hourly) Conditions
00:00 27.4 °F 18.9 °F 30.24 in SW 2.0 mph 4.0 mph 70% 0.00 in
00:01 27.3 °F 18.8 °F 30.24 in SW 2.0 mph 4.0 mph 70% 0.00 in
00:02 27.3 °F 18.8 °F 30.24 in SW 2.0 mph 4.0 mph 70% 0.00 in
00:07 27.2 °F 18.7 °F 30.25 in SSW 3.0 mph 3.0 mph 70% 0.00 in
00:12 27.0 °F 18.9 °F 30.25 in SW 1.0 mph 4.0 mph 71% 0.00 in
00:17 26.8 °F 18.7 °F 30.24 in SW 2.0 mph 2.0 mph 71% 0.00 in
00:22 26.9 °F 18.8 °F 30.24 in SW 2.0 mph 3.0 mph 71% 0.00 in
00:27 27.0 °F 18.9 °F 30.24 in SW 1.0 mph 2.0 mph 71% 0.00 in
00:32 26.9 °F 19.1 °F 30.24 in SW 1.0 mph 2.0 mph 72% 0.00 in
00:37 26.7 °F 18.9 °F 30.24 in SSE 1.0 mph 1.0 mph 72% 0.00 in
00:42 26.6 °F 18.8 °F 30.23 in SSW 2.0 mph 2.0 mph 72% 0.00 in
00:47 26.6 °F 18.8 °F 30.23 in SSW 1.0 mph 2.0 mph 72% 0.00 in
00:52 26.5 °F 18.7 °F 30.23 in SSW 1.0 mph 4.0 mph 72% 0.00 in
00:57 26.4 °F 18.9 °F 30.24 in SW 3.0 mph 4.0 mph 73% 0.00 in
01:02 26.4 °F 18.9 °F 30.24 in WSW 3.0 mph 5.0 mph 73% 0.00 in
01:07 26.6 °F 19.1 °F 30.24 in SW 4.0 mph 4.0 mph 73% 0.00 in
01:12 26.8 °F 19.3 °F 30.25 in WSW 2.0 mph 4.0 mph 73% 0.00 in
01:17 26.8 °F 19.3 °F 30.24 in WSW 2.0 mph 4.0 mph 73% 0.00 in
01:22 26.7 °F 19.5 °F 30.24 in West 2.0 mph 4.0 mph 74% 0.00 in
01:27 26.7 °F 19.5 °F 30.24 in West 2.0 mph 3.0 mph 74% 0.00 in
01:32 26.8 °F 19.6 °F 30.24 in WSW 2.0 mph 3.0 mph 74% 0.00 in
01:37 27.0 °F 19.5 °F 30.24 in WSW 3.0 mph 5.0 mph 73% 0.00 in
01:43 27.1 °F 19.6 °F 30.24 in West 3.0 mph 4.0 mph 73% 0.00 in
01:48 27.0 °F 19.5 °F 30.24 in WSW 2.0 mph 3.0 mph 73% 0.00 in
01:53 26.9 °F 19.4 °F 30.24 in WSW 2.0 mph 2.0 mph 73% 0.00 in
01:58 26.9 °F 19.4 °F 30.24 in SW 1.0 mph 2.0 mph 73% 0.00 in
02:03 26.8 °F 19.3 °F 30.24 in WSW 1.0 mph 2.0 mph 73% 0.00 in
02:08 26.7 °F 19.5 °F 30.24 in WSW 1.0 mph 2.0 mph 74% 0.00 in
02:13 26.7 °F 19.5 °F 30.24 in WSW 2.0 mph 2.0 mph 74% 0.00 in
02:18 26.6 °F 19.4 °F 30.25 in SW 1.0 mph 2.0 mph 74% 0.00 in
02:23 26.3 °F 18.8 °F 30.25 in SSW 2.0 mph 2.0 mph 73% 0.00 in
02:28 26.2 °F 18.7 °F 30.25 in SW 2.0 mph 2.0 mph 73% 0.00 in
02:33 26.0 °F 18.9 °F 30.25 in SSW 1.0 mph 2.0 mph 74% 0.00 in
02:38 26.0 °F 18.9 °F 30.26 in SSW 1.0 mph 2.0 mph 74% 0.00 in
02:43 25.9 °F 18.8 °F 30.25 in SW 1.0 mph 2.0 mph 74% 0.00 in
02:48 26.0 °F 18.9 °F 30.26 in SW 1.0 mph 2.0 mph 74% 0.00 in
02:53 25.9 °F 18.8 °F 30.26 in SSW 1.0 mph 2.0 mph 74% 0.00 in
02:58 25.8 °F 18.7 °F 30.26 in SSW 1.0 mph 1.0 mph 74% 0.00 in
03:03 25.8 °F 18.7 °F 30.26 in SSW 1.0 mph 1.0 mph 74% 0.00 in
03:08 25.6 °F 18.5 °F 30.25 in SSW 1.0 mph 1.0 mph 74% 0.00 in
03:13 25.6 °F 18.8 °F 30.26 in SSW 1.0 mph 1.0 mph 75% 0.00 in
03:18 25.5 °F 18.7 °F 30.25 in Calm   1.0 mph 75% 0.00 in
03:23 25.5 °F 18.7 °F 30.26 in SSW 1.0 mph 1.0 mph 75% 0.00 in
03:28 25.3 °F 18.5 °F 30.26 in SSW 1.0 mph 1.0 mph 75% 0.00 in
03:33 25.3 °F 18.5 °F 30.26 in SSW 1.0 mph 1.0 mph 75% 0.00 in
03:39 25.2 °F 18.4 °F 30.26 in Calm   1.0 mph 75% 0.00 in
03:44 25.1 °F 18.3 °F 30.26 in SSW 1.0 mph 1.0 mph 75% 0.00 in
03:49 25.1 °F 18.3 °F 30.26 in SSW 1.0 mph 1.0 mph 75% 0.00 in
03:54 25.2 °F 18.4 °F 30.26 in Calm   1.0 mph 75% 0.00 in
03:59 25.2 °F 18.4 °F 30.26 in SSW 1.0 mph 1.0 mph 75% 0.00 in
04:04 25.1 °F 18.3 °F 30.26 in SSW 1.0 mph 2.0 mph 75% 0.00 in
04:09 25.1 °F 18.3 °F 30.26 in Calm   1.0 mph 75% 0.00 in
04:14 25.1 °F 18.3 °F 30.26 in SSE 1.0 mph 1.0 mph 75% 0.00 in
04:19 25.1 °F 18.3 °F 30.26 in SSE 1.0 mph 1.0 mph 75% 0.00 in
04:24 25.4 °F 18.6 °F 30.26 in SE 1.0 mph 1.0 mph 75% 0.00 in
04:29 25.7 °F 18.6 °F 30.25 in SE 1.0 mph 1.0 mph 74% 0.00 in
04:34 25.7 °F 18.3 °F 30.26 in SE 1.0 mph 1.0 mph 73% 0.00 in
04:39 25.7 °F 18.6 °F 30.26 in SSW 1.0 mph 1.0 mph 74% 0.00 in
04:44 25.3 °F 18.2 °F 30.26 in Calm   1.0 mph 74% 0.00 in
04:49 24.8 °F 18.3 °F 30.26 in SSW 1.0 mph 2.0 mph 76% 0.00 in
04:54 24.4 °F 18.5 °F 30.25 in South 2.0 mph 2.0 mph 78% 0.00 in
04:59 24.4 °F 18.5 °F 30.26 in SSE 2.0 mph 2.0 mph 78% 0.00 in
05:04 24.7 °F 18.2 °F 30.26 in SSE 2.0 mph 3.0 mph 76% 0.00 in
05:09 25.1 °F 18.6 °F 30.25 in SSE 2.0 mph 3.0 mph 76% 0.00 in
05:14 25.2 °F 18.4 °F 30.26 in SSE 1.0 mph 2.0 mph 75% 0.00 in
05:19 25.1 °F 18.3 °F 30.26 in SSE 2.0 mph 2.0 mph 75% 0.00 in
05:24 25.1 °F 18.3 °F 30.26 in SSE 2.0 mph 2.0 mph 75% 0.00 in
05:29 25.0 °F 18.5 °F 30.26 in SSE 2.0 mph 2.0 mph 76% 0.00 in
05:34 24.9 °F 18.4 °F 30.26 in SSE 2.0 mph 2.0 mph 76% 0.00 in
05:39 25.0 °F 18.5 °F 30.26 in SSE 2.0 mph 2.0 mph 76% 0.00 in
05:44 25.0 °F 18.5 °F 30.25 in SE 2.0 mph 2.0 mph 76% 0.00 in
05:49 24.9 °F 18.4 °F 30.26 in SE 1.0 mph 2.0 mph 76% 0.00 in
05:54 24.8 °F 18.6 °F 30.25 in SE 3.0 mph 3.0 mph 77% 0.00 in
05:59 24.8 °F 18.6 °F 30.26 in ESE 2.0 mph 2.0 mph 77% 0.00 in
06:04 24.9 °F 18.7 °F 30.26 in ESE 1.0 mph 2.0 mph 77% 0.00 in
06:09 24.7 °F 18.5 °F 30.26 in ESE 1.0 mph 1.0 mph 77% 0.00 in
06:15 24.6 °F 18.4 °F 30.26 in ESE 1.0 mph 1.0 mph 77% 0.00 in
06:20 24.6 °F 18.4 °F 30.26 in SE 1.0 mph 2.0 mph 77% 0.00 in
06:25 24.2 °F 18.3 °F 30.26 in SE 3.0 mph 3.0 mph 78% 0.00 in
06:30 24.4 °F 18.5 °F 30.25 in SE 4.0 mph 4.0 mph 78% 0.00 in
06:35 24.4 °F 18.5 °F 30.26 in South 1.0 mph 4.0 mph 78% 0.00 in
06:40 24.4 °F 18.5 °F 30.27 in SSE 3.0 mph 3.0 mph 78% 0.00 in
06:45 24.2 °F 18.3 °F 30.27 in SSE 2.0 mph 2.0 mph 78% 0.00 in
06:50 24.1 °F 18.5 °F 30.27 in SE 2.0 mph 2.0 mph 79% 0.00 in
06:55 24.1 °F 18.5 °F 30.26 in SE 3.0 mph 4.0 mph 79% 0.00 in
07:00 24.2 °F 18.6 °F 30.26 in SE 3.0 mph 3.0 mph 79% 0.00 in
07:05 24.2 °F 18.6 °F 30.26 in SE 4.0 mph 5.0 mph 79% 0.00 in
07:10 24.2 °F 18.6 °F 30.26 in SSE 2.0 mph 3.0 mph 79% 0.00 in
07:15 24.2 °F 18.6 °F 30.26 in SE 1.0 mph 3.0 mph 79% 0.00 in
07:20 24.2 °F 18.6 °F 30.26 in SE 1.0 mph 2.0 mph 79% 0.00 in
07:25 24.4 °F 18.8 °F 30.26 in SE 2.0 mph 4.0 mph 79% 0.00 in
07:30 24.2 °F 18.9 °F 30.26 in SE 1.0 mph 3.0 mph 80% 0.00 in
07:35 24.1 °F 19.1 °F 30.26 in SE 2.0 mph 3.0 mph 81% 0.00 in
07:40 24.3 °F 19.3 °F 30.26 in SE 3.0 mph 3.0 mph 81% 0.00 in
07:45 24.5 °F 19.5 °F 30.26 in SE 3.0 mph 4.0 mph 81% 0.00 in
07:50 24.7 °F 19.7 °F 30.26 in SE 3.0 mph 3.0 mph 81% 0.00 in
07:55 24.7 °F 19.7 °F 30.26 in ESE 2.0 mph 3.0 mph 81% 0.00 in
08:00 24.5 °F 19.5 °F 30.26 in SE 2.0 mph 3.0 mph 81% 0.00 in
08:06 24.6 °F 19.9 °F 30.26 in ESE 3.0 mph 3.0 mph 82% 0.00 in
08:11 24.9 °F 20.2 °F 30.26 in SE 3.0 mph 4.0 mph 82% 0.00 in
08:16 25.3 °F 20.3 °F 30.26 in SE 3.0 mph 5.0 mph 81% 0.00 in
08:21 25.7 °F 20.7 °F 30.25 in ESE 3.0 mph 6.0 mph 81% 0.00 in
08:26 26.0 °F 21.0 °F 30.25 in SE 4.0 mph 7.0 mph 81% 0.00 in
08:31 26.2 °F 21.2 °F 30.25 in SE 4.0 mph 5.0 mph 81% 0.00 in
08:36 26.7 °F 21.4 °F 30.25 in ESE 5.0 mph 6.0 mph 80% 0.00 in
08:41 27.0 °F 21.4 °F 30.25 in SE 5.0 mph 6.0 mph 79% 0.00 in
08:46 27.0 °F 21.7 °F 30.26 in SSE 5.0 mph 5.0 mph 80% 0.00 in
08:51 27.0 °F 21.7 °F 30.26 in SE 4.0 mph 5.0 mph 80% 0.00 in
08:56 27.7 °F 22.4 °F 30.26 in SE 3.0 mph 6.0 mph 80% 0.00 in
09:01 28.3 °F 22.6 °F 30.26 in SSE 7.0 mph 7.0 mph 79% 0.00 in
09:06 28.9 °F 22.9 °F 30.26 in SSE 4.0 mph 8.0 mph 78% 0.00 in
09:11 29.3 °F 22.7 °F 30.26 in SE 6.0 mph 8.0 mph 76% 0.00 in
09:16 29.7 °F 23.1 °F 30.26 in SE 5.0 mph 11.0 mph 76% 0.00 in
09:21 30.2 °F 23.6 °F 30.26 in SE 4.0 mph 8.0 mph 76% 0.00 in
09:27 30.7 °F 23.1 °F 30.25 in SE 8.0 mph 9.0 mph 73% 0.00 in
09:32 31.2 °F 23.6 °F 30.26 in SSE 6.0 mph 9.0 mph 73% 0.00 in
09:37 31.5 °F 23.5 °F 30.25 in SSE 5.0 mph 10.0 mph 72% 0.00 in
09:42 31.8 °F 23.8 °F 30.25 in South 5.0 mph 8.0 mph 72% 0.00 in
09:47 32.3 °F 24.0 °F 30.25 in SE 8.0 mph 8.0 mph 71% 0.00 in
09:52 32.7 °F 24.0 °F 30.25 in SE 7.0 mph 9.0 mph 70% 0.00 in
09:57 33.1 °F 24.0 °F 30.25 in SSE 8.0 mph 10.0 mph 69% 0.00 in
10:02 33.6 °F 24.2 °F 30.24 in SSE 6.0 mph 10.0 mph 68% 0.00 in
10:07 34.3 °F 25.2 °F 30.25 in SE 7.0 mph 9.0 mph 69% 0.00 in
10:12 34.7 °F 24.5 °F 30.25 in SSE 7.0 mph 11.0 mph 66% 0.00 in
10:17 35.1 °F 24.9 °F 30.24 in SSE 5.0 mph 10.0 mph 66% 0.00 in
10:22 35.5 °F 24.9 °F 30.24 in South 6.0 mph 9.0 mph 65% 0.00 in
10:27 36.0 °F 24.3 °F 30.24 in SE 7.0 mph 9.0 mph 62% 0.00 in
10:33 36.6 °F 24.8 °F 30.24 in SSE 5.0 mph 10.0 mph 62% 0.00 in
10:38 36.8 °F 25.0 °F 30.24 in SSW 5.0 mph 11.0 mph 62% 0.00 in
10:43 37.3 °F 24.7 °F 30.23 in SSE 7.0 mph 9.0 mph 60% 0.00 in
10:48 37.7 °F 25.1 °F 30.23 in South 8.0 mph 11.0 mph 60% 0.00 in
10:53 38.0 °F 25.4 °F 30.23 in South 7.0 mph 10.0 mph 60% 0.00 in
10:59 38.5 °F 25.4 °F 30.23 in SSE 11.0 mph 11.0 mph 59% 0.00 in
11:04 38.8 °F 24.9 °F 30.22 in ESE 9.0 mph 11.0 mph 57% 0.00 in
11:09 39.4 °F 25.9 °F 30.22 in SE 8.0 mph 13.0 mph 58% 0.00 in
11:14 39.6 °F 24.8 °F 30.22 in SSE 10.0 mph 13.0 mph 55% 0.00 in
11:19 40.1 °F 25.7 °F 30.22 in SE 7.0 mph 10.0 mph 56% 0.00 in
11:24 40.3 °F 25.9 °F 30.21 in South 6.0 mph 12.0 mph 56% 0.00 in
11:29 40.9 °F 26.4 °F 30.21 in SSW 8.0 mph 10.0 mph 56% 0.00 in
11:34 41.5 °F 25.7 °F 30.20 in SSW 12.0 mph 12.0 mph 53% 0.00 in
11:39 41.9 °F 25.6 °F 30.20 in SSW 15.0 mph 15.0 mph 52% 0.00 in
11:44 42.4 °F 27.4 °F 30.19 in SW 6.0 mph 11.0 mph 55% 0.00 in
11:45 42.6 °F 27.6 °F 30.19 in SSW 8.0 mph 11.0 mph 55% 0.00 in
11:50 43.0 °F 26.1 °F 30.18 in SSE 6.0 mph 15.0 mph 51% 0.00 in
11:55 43.3 °F 27.8 °F 30.18 in SSW 7.0 mph 15.0 mph 54% 0.00 in
12:00 43.7 °F 25.8 °F 30.18 in WSW 11.0 mph 11.0 mph 49% 0.00 in
12:05 44.0 °F 27.5 °F 30.17 in SSW 7.0 mph 15.0 mph 52% 0.00 in
12:10 44.1 °F 26.2 °F 30.17 in SSW 14.0 mph 14.0 mph 49% 0.00 in
12:15 44.1 °F 26.2 °F 30.16 in South 11.0 mph 15.0 mph 49% 0.00 in
12:20 44.5 °F 27.5 °F 30.15 in SW 8.0 mph 13.0 mph 51% 0.00 in
12:25 44.9 °F 27.9 °F 30.15 in South 14.0 mph 14.0 mph 51% 0.00 in
12:30 45.2 °F 27.2 °F 30.15 in SW 8.0 mph 14.0 mph 49% 0.00 in
12:35 45.6 °F 27.1 °F 30.14 in SSE 8.0 mph 15.0 mph 48% 0.00 in
12:40 46.6 °F 28.0 °F 30.14 in SW 15.0 mph 16.0 mph 48% 0.00 in
12:45 47.1 °F 27.9 °F 30.13 in SW 12.0 mph 13.0 mph 47% 0.00 in
12:50 48.0 °F 28.2 °F 30.12 in South 6.0 mph 13.0 mph 46% 0.00 in
12:55 48.5 °F 28.1 °F 30.11 in South 9.0 mph 16.0 mph 45% 0.00 in
13:00 48.5 °F 27.0 °F 30.10 in SSW 11.0 mph 19.0 mph 43% 0.00 in
13:06 48.7 °F 27.8 °F 30.10 in SSW 16.0 mph 22.0 mph 44% 0.00 in
13:11 48.4 °F 27.5 °F 30.10 in SW 10.0 mph 16.0 mph 44% 0.00 in
13:16 48.4 °F 27.0 °F 30.10 in SW 9.0 mph 14.0 mph 43% 0.00 in
13:21 48.7 °F 27.2 °F 30.10 in SW 10.0 mph 17.0 mph 43% 0.00 in
13:26 48.7 °F 27.2 °F 30.10 in SW 15.0 mph 22.0 mph 43% 0.00 in
13:31 48.5 °F 27.6 °F 30.10 in SW 9.0 mph 17.0 mph 44% 0.00 in
13:36 48.6 °F 27.7 °F 30.09 in SSW 7.0 mph 17.0 mph 44% 0.00 in
13:41 48.7 °F 27.2 °F 30.08 in SSW 17.0 mph 17.0 mph 43% 0.00 in
13:46 49.2 °F 28.8 °F 30.08 in SSW 9.0 mph 16.0 mph 45% 0.00 in
13:51 49.3 °F 27.2 °F 30.08 in SSW 13.0 mph 16.0 mph 42% 0.00 in
13:56 49.6 °F 26.9 °F 30.08 in SW 13.0 mph 15.0 mph 41% 0.00 in
14:01 50.0 °F 27.8 °F 30.08 in SW 12.0 mph 17.0 mph 42% 0.00 in
14:06 50.6 °F 29.0 °F 30.08 in SW 18.0 mph 18.0 mph 43% 0.00 in
14:11 50.6 °F 27.8 °F 30.07 in WSW 10.0 mph 15.0 mph 41% 0.00 in
14:16 50.7 °F 27.3 °F 30.06 in SW 11.0 mph 21.0 mph 40% 0.00 in
14:21 50.7 °F 27.9 °F 30.06 in SW 12.0 mph 15.0 mph 41% 0.00 in
14:26 50.8 °F 27.4 °F 30.06 in SW 6.0 mph 17.0 mph 40% 0.00 in
14:31 51.5 °F 28.6 °F 30.05 in SW 10.0 mph 16.0 mph 41% 0.00 in
14:36 52.1 °F 29.7 °F 30.05 in SSW 8.0 mph 13.0 mph 42% 0.00 in
14:41 52.7 °F 29.1 °F 30.05 in SSW 13.0 mph 18.0 mph 40% 0.00 in
14:46 53.1 °F 30.0 °F 30.05 in SW 9.0 mph 13.0 mph 41% 0.00 in
14:48 53.3 °F 29.0 °F 30.05 in SW 21.0 mph 21.0 mph 39% 0.00 in
14:53 52.8 °F 27.3 °F 30.05 in SSW 13.0 mph 22.0 mph 37% 0.00 in
14:58 53.0 °F 28.1 °F 30.05 in SW 18.0 mph 23.0 mph 38% 0.00 in
15:03 52.6 °F 27.7 °F 30.05 in SW 20.0 mph 20.0 mph 38% 0.00 in
15:08 52.9 °F 29.2 °F 30.05 in SW 16.0 mph 16.0 mph 40% 0.00 in
15:13 53.1 °F 26.9 °F 30.05 in WSW 9.0 mph 25.0 mph 36% 0.00 in
15:18 53.4 °F 28.5 °F 30.05 in West 9.0 mph 21.0 mph 38% 0.00 in
15:24 53.4 °F 27.8 °F 30.05 in WSW 15.0 mph 26.0 mph 37% 0.00 in
15:29 53.7 °F 27.4 °F 30.05 in SW 10.0 mph 18.0 mph 36% 0.00 in
15:34 53.8 °F 27.5 °F 30.05 in SW 19.0 mph 27.0 mph 36% 0.00 in
15:39 53.8 °F 27.5 °F 30.05 in SW 16.0 mph 28.0 mph 36% 0.00 in
15:44 53.9 °F 27.6 °F 30.05 in SW 16.0 mph 21.0 mph 36% 0.00 in
15:50 54.0 °F 28.3 °F 30.05 in WSW 11.0 mph 23.0 mph 37% 0.00 in
15:55 54.2 °F 28.5 °F 30.05 in WSW 16.0 mph 18.0 mph 37% 0.00 in
16:00 54.2 °F 28.5 °F 30.05 in SSW 11.0 mph 20.0 mph 37% 0.00 in
16:05 54.4 °F 28.7 °F 30.05 in SW 15.0 mph 17.0 mph 37% 0.00 in
16:10 54.4 °F 28.7 °F 30.05 in SW 18.0 mph 26.0 mph 37% 0.00 in
16:20 54.6 °F 28.9 °F 30.05 in WSW 8.0 mph 20.0 mph 37% 0.00 in
16:25 54.7 °F 28.3 °F 30.05 in WSW 10.0 mph 15.0 mph 36% 0.00 in
16:30 54.9 °F 27.8 °F 30.05 in West 11.0 mph 14.0 mph 35% 0.00 in
16:35 54.7 °F 24.7 °F 30.06 in West 20.0 mph 21.0 mph 31% 0.00 in
16:40 54.5 °F 22.9 °F 30.06 in WNW 11.0 mph 23.0 mph 29% 0.00 in
16:45 54.3 °F 22.7 °F 30.07 in West 15.0 mph 15.0 mph 29% 0.00 in
16:50 54.1 °F 22.6 °F 30.07 in West 9.0 mph 23.0 mph 29% 0.00 in
16:55 53.9 °F 24.7 °F 30.07 in West 17.0 mph 18.0 mph 32% 0.00 in
17:00 53.7 °F 23.0 °F 30.07 in West 19.0 mph 27.0 mph 30% 0.00 in
17:05 53.5 °F 22.9 °F 30.07 in West 9.0 mph 19.0 mph 30% 0.00 in
17:10 53.3 °F 22.7 °F 30.07 in West 11.0 mph 19.0 mph 30% 0.00 in
17:15 53.0 °F 23.2 °F 30.08 in WSW 15.0 mph 19.0 mph 31% 0.00 in
17:20 52.7 °F 23.7 °F 30.08 in West 13.0 mph 17.0 mph 32% 0.00 in
17:25 52.5 °F 24.2 °F 30.08 in WSW 5.0 mph 18.0 mph 33% 0.00 in
17:30 52.1 °F 23.9 °F 30.09 in WSW 9.0 mph 18.0 mph 33% 0.00 in
17:35 51.8 °F 24.3 °F 30.10 in West 18.0 mph 23.0 mph 34% 0.00 in
17:40 51.5 °F 24.8 °F 30.10 in West 8.0 mph 20.0 mph 35% 0.00 in
17:45 51.2 °F 25.2 °F 30.10 in West 6.0 mph 20.0 mph 36% 0.00 in
17:46 51.2 °F 25.2 °F 30.10 in West 6.0 mph 20.0 mph 36% 0.00 in
17:51 50.9 °F 24.9 °F 30.10 in WSW 7.0 mph 24.0 mph 36% 0.00 in
17:56 50.7 °F 24.7 °F 30.11 in WSW 12.0 mph 23.0 mph 36% 0.00 in
18:01 50.3 °F 25.0 °F 30.11 in West 8.0 mph 14.0 mph 37% 0.00 in
18:06 49.9 °F 25.3 °F 30.12 in West 4.0 mph 11.0 mph 38% 0.00 in
18:11 49.5 °F 25.6 °F 30.12 in West 5.0 mph 11.0 mph 39% 0.00 in
18:16 49.1 °F 25.8 °F 30.12 in WSW 4.0 mph 10.0 mph 40% 0.00 in
18:21 48.8 °F 25.6 °F 30.13 in WNW 5.0 mph 8.0 mph 40% 0.00 in
18:26 48.7 °F 26.1 °F 30.13 in West 5.0 mph 10.0 mph 41% 0.00 in
18:31 48.4 °F 25.8 °F 30.13 in WNW 3.0 mph 7.0 mph 41% 0.00 in
18:36 48.0 °F 26.0 °F 30.14 in WNW 4.0 mph 5.0 mph 42% 0.00 in
18:41 47.9 °F 25.9 °F 30.14 in WNW 5.0 mph 7.0 mph 42% 0.00 in
18:46 47.7 °F 25.8 °F 30.14 in WSW 4.0 mph 16.0 mph 42% 0.00 in
18:51 47.7 °F 26.3 °F 30.15 in West 5.0 mph 11.0 mph 43% 0.00 in
18:56 47.9 °F 26.5 °F 30.15 in WNW 4.0 mph 13.0 mph 43% 0.00 in
19:01 47.9 °F 26.5 °F 30.15 in West 4.0 mph 9.0 mph 43% 0.00 in
19:06 47.8 °F 26.4 °F 30.16 in WNW 6.0 mph 11.0 mph 43% 0.00 in
19:11 47.6 °F 26.8 °F 30.16 in WNW 8.0 mph 10.0 mph 44% 0.00 in
19:16 47.6 °F 26.8 °F 30.16 in West 6.0 mph 8.0 mph 44% 0.00 in
19:21 47.3 °F 26.5 °F 30.16 in West 5.0 mph 8.0 mph 44% 0.00 in
19:26 47.0 °F 27.3 °F 30.16 in West 6.0 mph 7.0 mph 46% 0.00 in
19:31 47.1 °F 27.4 °F 30.17 in WSW 5.0 mph 6.0 mph 46% 0.00 in
19:36 47.1 °F 27.4 °F 30.17 in West 4.0 mph 5.0 mph 46% 0.00 in
19:41 47.1 °F 27.4 °F 30.17 in WSW 6.0 mph 8.0 mph 46% 0.00 in
19:46 47.2 °F 27.5 °F 30.17 in West 4.0 mph 7.0 mph 46% 0.00 in
19:48 47.1 °F 27.4 °F 30.17 in WSW 3.0 mph 7.0 mph 46% 0.00 in
19:53 46.9 °F 27.7 °F 30.17 in WSW 5.0 mph 6.0 mph 47% 0.00 in
19:58 46.6 °F 28.0 °F 30.17 in West 2.0 mph 4.0 mph 48% 0.00 in
20:03 46.4 °F 27.8 °F 30.18 in WNW 5.0 mph 8.0 mph 48% 0.00 in
20:08 46.6 °F 28.0 °F 30.18 in WNW 9.0 mph 12.0 mph 48% 0.00 in
20:13 47.1 °F 27.9 °F 30.18 in West 6.0 mph 13.0 mph 47% 0.00 in
20:18 47.1 °F 27.4 °F 30.18 in WSW 5.0 mph 10.0 mph 46% 0.00 in
20:23 46.8 °F 27.6 °F 30.18 in WNW 6.0 mph 10.0 mph 47% 0.00 in
20:28 46.8 °F 27.6 °F 30.19 in West 3.0 mph 11.0 mph 47% 0.00 in
20:33 46.7 °F 28.1 °F 30.19 in West 4.0 mph 12.0 mph 48% 0.00 in
20:38 46.4 °F 27.8 °F 30.19 in WSW 8.0 mph 9.0 mph 48% 0.00 in
20:43 46.3 °F 27.7 °F 30.19 in West 8.0 mph 10.0 mph 48% 0.00 in
20:48 46.4 °F 28.3 °F 30.19 in West 6.0 mph 12.0 mph 49% 0.00 in
20:53 46.3 °F 28.2 °F 30.20 in West 8.0 mph 13.0 mph 49% 0.00 in
20:58 46.0 °F 27.9 °F 30.20 in West 6.0 mph 10.0 mph 49% 0.00 in
21:03 45.7 °F 28.1 °F 30.20 in West 5.0 mph 9.0 mph 50% 0.00 in
21:08 45.6 °F 28.5 °F 30.21 in WNW 7.0 mph 10.0 mph 51% 0.00 in
21:13 45.4 °F 28.4 °F 30.21 in WNW 3.0 mph 8.0 mph 51% 0.00 in
21:18 45.3 °F 28.7 °F 30.21 in WNW 5.0 mph 9.0 mph 52% 0.00 in
21:23 45.0 °F 28.5 °F 30.21 in West 6.0 mph 8.0 mph 52% 0.00 in
21:29 44.7 °F 28.6 °F 30.22 in West 6.0 mph 8.0 mph 53% 0.00 in
21:34 44.6 °F 28.5 °F 30.22 in West 4.0 mph 6.0 mph 53% 0.00 in
21:39 44.4 °F 28.8 °F 30.22 in West 4.0 mph 6.0 mph 54% 0.00 in
21:44 44.2 °F 28.6 °F 30.22 in West 5.0 mph 6.0 mph 54% 0.00 in
21:49 43.9 °F 28.8 °F 30.22 in West 6.0 mph 6.0 mph 55% 0.00 in
21:54 43.7 °F 28.6 °F 30.23 in West 3.0 mph 6.0 mph 55% 0.00 in
21:59 43.5 °F 28.9 °F 30.23 in WNW 5.0 mph 6.0 mph 56% 0.00 in
22:04 43.3 °F 28.7 °F 30.23 in West 4.0 mph 8.0 mph 56% 0.00 in
22:09 43.2 °F 29.0 °F 30.23 in WNW 3.0 mph 8.0 mph 57% 0.00 in
22:14 43.0 °F 28.8 °F 30.24 in West 4.0 mph 8.0 mph 57% 0.00 in
22:19 42.8 °F 29.1 °F 30.24 in WNW 10.0 mph 11.0 mph 58% 0.00 in
22:24 42.8 °F 29.5 °F 30.24 in NW 4.0 mph 10.0 mph 59% 0.00 in
22:29 42.2 °F 29.7 °F 30.24 in NW 6.0 mph 16.0 mph 61% 0.00 in
22:34 41.6 °F 30.0 °F 30.25 in NW 5.0 mph 9.0 mph 63% 0.00 in
22:39 40.9 °F 29.7 °F 30.25 in NW 8.0 mph 8.0 mph 64% 0.00 in
22:44 40.6 °F 29.8 °F 30.26 in NW 6.0 mph 7.0 mph 65% 0.00 in
22:49 40.3 °F 29.5 °F 30.26 in NW 6.0 mph 9.0 mph 65% 0.00 in
22:54 40.5 °F 29.3 °F 30.26 in NW 4.0 mph 12.0 mph 64% 0.00 in
22:59 40.4 °F 28.8 °F 30.26 in WNW 7.0 mph 12.0 mph 63% 0.00 in
23:04 40.1 °F 28.5 °F 30.27 in WNW 5.0 mph 10.0 mph 63% 0.00 in
23:09 39.8 °F 28.6 °F 30.27 in NW 6.0 mph 8.0 mph 64% 0.00 in
23:14 39.6 °F 28.4 °F 30.27 in WNW 12.0 mph 12.0 mph 64% 0.00 in
23:19 39.6 °F 28.4 °F 30.27 in NW 4.0 mph 9.0 mph 64% 0.00 in
23:25 39.2 °F 28.1 °F 30.27 in NNW 4.0 mph 7.0 mph 64% 0.00 in
23:30 38.9 °F 27.8 °F 30.27 in NW 5.0 mph 8.0 mph 64% 0.00 in
23:35 38.4 °F 28.0 °F 30.27 in NW 6.0 mph 7.0 mph 66% 0.00 in
23:40 38.0 °F 28.0 °F 30.27 in NW 5.0 mph 6.0 mph 67% 0.00 in
23:45 37.8 °F 27.8 °F 30.27 in NW 3.0 mph 7.0 mph 67% 0.00 in
23:50 37.5 °F 27.9 °F 30.28 in NW 4.0 mph 6.0 mph 68% 0.00 in
23:55 37.2 °F 27.6 °F 30.28 in NW 3.0 mph 4.0 mph 68% 0.00 in
Compliments of Weather Underground